STARLINK-11263, 60725

Orbit data source: Space-Track

STARLINK-11263, 60725 is a payload satellite owned by SpaceX/Seattle (US) in LEO that was launched on Wed, 28 Aug 2024 UTC via an FALCON 9 launch vehicle from the Air Force Eastern Test Range (AFETR). Payload-class satellites include a variety of spacecraft equipped with specific instruments for various scientific and technological missions. These include communications satellites like Starlink; space stations such as the ISS; scientific satellites like the Hubble; Earth observation satellites from companies like Planet Labs, Umbra, and HawkEye 360; GPS; miniature CubeSats for education and research; and military/defense satellites.

Loading next visibility...
Identifier
60725, 2024-152F
Orbit
LEO
Last TLE update
14 hours ago
Origin
Manufacturer
SpaceX/Seattle
Mission
Operational Commercial Communications
Bus & Motor
STARLINK V2M, Unknown motor
Mass
730 kg wet, ~700 kg dry
Launch date (UTC)
2024-08-28 (10 months ago)
Launch vehicle
FALCON 9
Launch site
Air Force Eastern Test Range (AFETR)
Object type
Payload
Rocket body
Debris
Shape & HBR
Box + 2 Pan, 29 m
Radar Cross Section
36.964 m², Large (>1 m²)

Expand to show TLE details & history

TLE from 14 hours ago
0 STARLINK-11263
1 60725U 24152F   25182.63533479 -.00000627  00000-0 -31780-6 0  9994
2 60725  53.1583 273.8986 0000831  76.6870 283.4241 15.69706921 49403
Epoch: 2025-07-01T15:14Z
TLE epoch observation values (Epoch: 2025-07-01T15:14:52.925Z)
Latitude
-0°
Longitude
125.25012°
Altitude
360.52 km
Speed
7.694 km/s
True Right ascension
18h 15m 35s
True Declination
0° 00' 00"
Sunlit
Object was in full shadow at epoch
Visualization orbit readout
Latitude
12.77947°
Longitude
-67.44728°
Altitude
359.841 km
Speed
7.696 km/s
Apparent Right ascension
05h 24m 11s
Apparent Declination
-12° 43' 18"
Sunlit
Object is in daylight
Visualization observer readout
Local Sidereal Time
17:23:22
Azimuth
359.562° N
Elevation
-62.805°
Doppler factor
1
Orbital elements
Apogee altitude
360.556 km
Perigee altitude
359.437 km
Semi-major axis
6,738.134 km
Eccentricity
0.00008
Inclination
53.1583°
RAAN
273.8986°
Arg. of periapsis
76.687°
True anomaly
Unknown
Mean anomaly
283.4241°
Eccentric anomaly
Unknown
Mean motion
3.92404 °/min
Orbital period
91.74 mins
BSTAR
-3.178e-7
Loading maneuver chart data...
Loading SW <> Apogee altitude chart data...
Loading historical data...
Loading historical data...
Loading historical data...
Loading historical data...
Loading historical data...
Loading historical data...
Loading historical data...

STARLINK-11263 Visibility forecast

Observer location: undefined°, undefined°

Span
Click to sort rows by Start time (UTC) header in descending order
Start Az.
Max El. time (UTC)
Max El. Az.
Max El.
End time (UTC)
End Az.
4 mins2025-07-02 08:13:45.659Z187.257° SSW2025-07-02 08:15:45.659Z124.681° SE26.203°2025-07-02 08:17:45.659Z74.148° E
|